STARLINK-1456 (45673 NORAD) Tracking and Keplerian Element Data

This shows tracking and keplerian element data for the satellite.

Feedback or suggestion? Click here.




ElementValue
Catalog45673
NameSTARLINK-1456
Epoch Orbit655
Epoch Day192.16668981
Epoch Year2020
RAAN353.736
Inclination53.0034
Eccentricity0.0001251
Argument of Perigee82.1238
Mean Anonmoly182.0934
Mean Motion15.3447401
Decay Rate-0.01075567
L11 45673U 20035S 20192.16668981 -.01075567 00000-0 -34622-1 0 9995
L22 45673 53.0034 353.7360 0001251 82.1238 182.0934 15.34474010 6554

Live tracking and technical data element details for STARLINK-1456 (NORAD 45673). STARLINK-1456 can be tracked NOW for your location showing map with azimuth and elevation plus other details from your city location.

Track the satellite on the map from your city or location and see movement details for azimuth, elevation, latitude, longitude, range, height, and movement on the map or in text.







IsCatalogInMostPopularTable: catalog: 45673, numindb: 5
Update: records affected: 1



GetName: 45673 STARLINK-1456

Hit Count: updated at: Fri, 10 Jul 2020 16:24:17 GMT